Regional Weather Roundup
Issued by NWS Kansas City/Pleasant Hill, MO

Home | Current Version | Previous Version | Text Only | Print | Product List | Glossary On
Versions: 1 2 3 4 5 6 7 8 9 10 11 12 13 14 15 16 17 18 19 20 21 22 23 24 25 26 27 28 29 30 31 32 33 34 35 36 37 38 39 40 41 42 43 44 45 46 47 48 49 50
000
ASUS43 KEAX 080110
RWREAX

WEATHER ROUNDUP FOR EASTERN KANSAS AND NORTHWEST MISSOURI
NATIONAL WEATHER SERVICE KANSAS CITY/PLEASANT HILL MO
800 PM CDT TUE JUL 07 2015

KSZ040-057-103>105-MOZ028-029-037-043-080200-
...KANSAS CITY METROPOLITAN AREA...

CITY           SKY/WX    TMP DP  RH WIND       PRES   REMARKS
K.C. INTL      CLOUDY    69  59  70 NE8       30.05R
K.C. DOWNTOWN  CLOUDY    71  59  65 N8        30.04R
LEES SUMMIT    CLOUDY    69  60  73 NE7       30.05S
OLATHE - IXD   LGT RAIN  66  64  93 N3        30.06R FOG
OLATHE - OJC   LGT RAIN  66  61  84 N3        30.05R
LAWRENCE       CLOUDY    69  64  84 CALM      30.05R HAZE

$$

MOZ001>008-011>017-020>025-030>033-038>040-044>046-053-054-080200-
...NORTHERN AND CENTRAL MISSOURI...

CITY           SKY/WX    TMP DP  RH WIND       PRES   REMARKS
ST. JOSEPH     CLOUDY    70  58  65 NE6       30.05S
MOSBY          CLOUDY    70  59  68 CALM      30.04S
WARRENSBURG    DRIZZLE   64  63  94 CALM      30.04S
WHITEMAN AFB   LGT RAIN  65  64  96 SE3       30.03S FOG
CLINTON        LGT RAIN  66  64  94 NE5       30.04S
SEDALIA        LGT RAIN  67  64  90 SE3       30.05R FOG
WARSAW         NOT AVBL
CHILLICOTHE      N/A     71  60  68 N3        30.06R
KIRKSVILLE     MOCLDY    68  60  75 NE5       30.06R

$$

MOZ041-047>049-056>058-063>065-088>090-097-080200-
...EASTERN AND SOUTHERN MISSOURI...

CITY           SKY/WX    TMP DP  RH WIND       PRES   REMARKS
ST. LOUIS INTL CLOUDY    68  62  81 NE7       30.03R
SPIRIT OF STL  CLOUDY    67  65  93 NE7       30.02R
COLUMBIA       LGT RAIN  67  65  93 E5        30.04S FOG
JEFFERSON CITY CLOUDY    67  63  87 E5        30.03S FOG
ROLLA          CLOUDY    65  64  97 N6        30.03R FOG
OSAGE BEACH    CLOUDY    64  63  94 NE5       30.04R
SPRINGFIELD    LGT RAIN  67  65  93 NE8       30.02R FOG
BRANSON        CLOUDY    72  72 100 CALM      30.02S
JOPLIN         CLOUDY    65  63  93 VRB6      30.03R
WEST PLAINS    CLOUDY    73  70  90 SW5       30.04R

$$

IAZ060-094-KSZ022-034>040-054-083-096-NEZ052-066-093-080200-
...KANSAS...SOUTHEAST NEBRASKA AND IOWA...

CITY           SKY/WX    TMP DP  RH WIND       PRES   REMARKS
TOPEKA         CLOUDY    69  61  75 N3        30.05S
MANHATTAN      CLOUDY    70  56  61 E6        30.06R
EMPORIA        LGT RAIN  65  60  84 NE7       30.05S
CHANUTE        LGT RAIN  64  61  90 NE9G21    30.03F FOG
WICHITA        LGT RAIN  66  55  67 NE14      30.03S
OMAHA          MOCLDY    70  52  52 NE6       30.08S
LINCOLN        PTCLDY    69  53  56 NE8       30.09S
FALLS CITY     CLOUDY    70  56  61 NE3       30.05S
LAMONI         CLOUDY    67  56  67 NE6       30.07R
DES MOINES     MOCLDY    70  50  49 NE9       30.07F

$$




USA.gov is the U.S. government's official web portal to all federal, state and local government web resources and services.